Wind_Speed
3 3 4 8 9 5 4 2 3 3 7 8 6 8 5 10 12 24 21 35 48 51 53 52 50 50 48 46 43 37 30 31
7 8 3 4 5 8 5 2 3 5 3 5 1 6 5 2 14 27 22 21 40 48 53 52 52 50 50 47 44 39 34 31
5 4 5 10 6 5 2 3 1 3 6 7 9 6 10 9 26 15 13 11 18 32 50 54 53 52 52 50 47 43 37 34
6 8 6 4 5 5 4 7 2 5 5 8 10 8 20 14 24 20 1 21 10 20 39 50 53 51 52 49 47 45 37 35
10 8 6 4 4 3 2 2 1 3 6 17 6 10 16 18 16 22 21 8 23 23 35 49 54 53 51 37 35 42 40 38
5 7 4 8 13 4 5 3 2 4 7 14 11 7 7 19 30 26 21 20 6 23 25 38 49 52 51 49 41 34 39 37
5 6 5 4 9 8 4 7 3 5 6 10 6 2 16 20 26 33 32 30 29 17 6 27 35 41 51 48 43 41 39 39
4 8 6 6 9 9 4 3 5 5 4 8 21 20 12 11 17 29 33 31 30 29 10 11 33 39 44 48 45 44 41 38
4 5 6 6 5 5 5 3 4 7 9 16 14 11 15 15 8 28 30 30 33 28 20 13 9 30 42 47 45 45 43 38
4 3 0 8 6 6 4 10 10 7 15 16 21 28 14 14 16 18 24 25 23 23 21 17 18 19 14 34 39 39 40 40
2 4 6 8 6 7 3 4 13 12 16 24 42 11 21 21 8 21 23 25 24 23 24 22 19 17 19 21 18 18 25 25
0 2 5 1 11 21 10 4 15 20 15 18 28 7 5 24 23 23 21 19 20 19 19 18 15 13 14 15 15 14 14 13
1 4 4 4 15 18 2 5 22 20 19 18 5 6 29 16 15 18 20 19 16 15 18 16 10 8 9 5 4 5 7 10
3 3 7 16 9 3 8 22 21 23 19 21 25 29 25 17 7 11 9 11 14 13 12 9 6 4 4 6 8 11 15 19
6 5 15 31 11 23 24 25 26 26 20 13 17 25 23 20 7 4 6 5 6 7 8 8 9 9 10 12 14 18 20 21
4 4 9 27 33 34 31 25 23 23 20 12 17 20 24 19 12 4 4 3 6 10 13 14 13 14 17 18 19 19 23 23
9 18 24 28 26 35 36 36 33 33 33 33 22 23 20 19 13 3 5 2 6 9 13 19 22 22 21 21 21 22 23 24
13 29 26 34 42 42 42 41 39 35 33 28 21 23 16 19 12 4 6 1 5 9 14 16 21 22 20 15 14 14 15 15
26 32 38 42 42 39 46 45 48 43 35 29 23 24 12 15 9 7 7 4 8 13 18 22 22 19 13 8 7 7 9 9
Wind_Direction
61 245 148 320 354 231 164 81 97 232 292 324 18 31 68 117 78 20 336 229 202 203 203 204 210 212 214 216 217 216 214 211
306 347 95 87 287 357 358 334 283 282 289 234 294 172 167 96 65 46 33 209 194 195 201 205 215 216 216 218 217 214 213 212
12 29 319 348 6 10 146 84 322 305 274 227 210 233 108 87 77 63 58 57 188 206 202 209 214 217 218 219 217 215 215 215
258 267 264 218 111 92 84 308 258 166 280 1 288 229 117 123 113 102 131 270 285 265 221 204 211 217 218 219 218 218 217 217
343 350 8 40 68 82 168 56 317 71 286 329 360 349 55 123 147 155 177 125 9 297 225 208 211 218 218 218 218 219 217 219
196 236 270 317 330 2 115 101 244 235 288 321 347 342 89 131 127 131 137 136 337 345 216 213 209 217 218 220 222 217 217 219
264 256 317 314 336 352 333 250 185 257 287 283 296 271 281 157 170 164 155 161 148 261 333 213 211 212 217 219 220 219 218 219
302 298 324 306 311 295 266 290 296 291 300 277 307 311 293 316 165 142 139 148 146 158 195 167 211 215 218 219 219 220 220 222
265 302 349 337 217 279 283 339 317 40 322 337 325 313 313 313 226 163 151 147 148 149 146 151 173 214 217 223 222 221 222 225
253 20 111 239 252 241 228 53 36 26 9 342 326 312 353 317 273 217 148 140 132 127 122 122 112 108 138 215 218 221 223 226
206 210 279 304 28 330 340 83 36 26 5 353 344 2 21 19 271 166 139 124 116 126 135 130 127 132 132 123 135 185 214 224
331 247 252 306 320 314 287 158 22 13 3 354 355 17 321 24 64 91 104 108 106 110 112 118 112 129 146 142 144 147 168 185
258 244 274 315 330 324 246 281 334 337 328 330 331 287 322 354 54 70 78 85 96 100 88 79 85 99 123 124 166 215 250 255
342 299 275 13 11 85 278 307 313 314 307 301 302 306 326 349 46 65 73 65 58 68 67 52 24 356 332 311 298 284 276 274
198 236 305 308 281 305 299 295 296 297 304 297 304 295 305 321 351 79 60 53 37 21 18 1 347 334 311 292 285 285 284 279
319 238 268 290 295 297 295 285 287 286 278 299 307 301 289 287 288 122 70 17 334 323 337 341 332 320 318 311 295 281 280 282
247 280 284 282 284 291 292 287 282 276 270 276 275 285 284 279 258 198 170 283 326 323 321 324 322 318 306 298 292 286 282 282
281 289 294 287 288 287 287 284 277 268 262 256 252 248 272 245 228 212 171 231 307 306 307 304 306 302 297 293 288 288 285 285
285 297 293 291 292 296 287 284 276 263 246 237 240 232 240 262 262 178 167 217 276 298 307 310 302 294 289 293 278 278 279 272
Height
1456 1454 1455 1464 1475 1457 1476 1477 1493 1480 1460 1440 1428 1427 1429 1429 1434 1436 1433 1436 1443 1453 1461 1468 1472 1476 1480 1484 1489 1495 1498 1502
1459 1451 1455 1462 1459 1483 1476 1491 1494 1485 1472 1470 1440 1435 1430 1433 1424 1426 1428 1433 1436 1446 1454 1462 1465 1469 1474 1478 1483 1488 1493 1497
1466 1472 1475 1468 1482 1479 1483 1493 1505 1508 1483 1439 1433 1424 1430 1427 1418 1423 1430 1440 1445 1454 1451 1454 1459 1464 1468 1473 1478 1484 1489 1493
1482 1465 1462 1463 1475 1486 1507 1503 1500 1505 1484 1435 1435 1420 1426 1427 1424 1420 1425 1443 1449 1454 1457 1451 1453 1458 1460 1466 1472 1477 1483 1488
1499 1481 1468 1472 1475 1479 1487 1496 1499 1508 1489 1436 1432 1435 1437 1433 1433 1432 1431 1435 1442 1446 1450 1449 1449 1453 1458 1462 1466 1471 1478 1483
1516 1499 1488 1486 1477 1477 1487 1506 1500 1496 1479 1451 1444 1437 1440 1439 1436 1439 1437 1435 1445 1454 1449 1451 1448 1450 1455 1458 1462 1467 1472 1477
1492 1487 1483 1481 1481 1480 1482 1481 1487 1477 1472 1455 1445 1443 1447 1441 1444 1441 1440 1443 1441 1456 1447 1447 1449 1450 1451 1455 1460 1464 1468 1472
1493 1482 1482 1483 1478 1474 1472 1467 1468 1465 1465 1448 1441 1437 1436 1433 1439 1434 1434 1437 1438 1436 1443 1438 1440 1444 1450 1451 1454 1459 1463 1467
1504 1486 1487 1493 1473 1470 1470 1467 1466 1481 1475 1456 1444 1437 1432 1430 1429 1430 1430 1432 1432 1432 1433 1435 1435 1436 1441 1448 1451 1454 1459 1463
1505 1495 1506 1480 1463 1461 1465 1475 1472 1470 1466 1461 1451 1441 1433 1427 1425 1426 1428 1430 1433 1431 1434 1436 1437 1437 1438 1445 1448 1451 1456 1461
1502 1506 1488 1473 1472 1474 1471 1479 1471 1470 1466 1459 1446 1437 1434 1429 1420 1424 1428 1430 1430 1431 1431 1435 1438 1440 1442 1444 1447 1451 1457 1461
1498 1499 1498 1483 1472 1466 1461 1479 1471 1469 1469 1467 1458 1456 1448 1442 1435 1431 1430 1431 1430 1431 1431 1434 1435 1438 1440 1442 1444 1448 1452 1455
1497 1494 1482 1478 1469 1459 1471 1480 1468 1471 1470 1468 1467 1465 1457 1449 1442 1437 1433 1432 1431 1431 1430 1434 1436 1436 1437 1440 1442 1445 1449 1450
1501 1495 1492 1470 1468 1481 1478 1468 1468 1466 1467 1464 1461 1456 1451 1449 1445 1440 1435 1435 1435 1432 1432 1434 1437 1437 1438 1439 1440 1441 1443 1444
1498 1485 1466 1466 1469 1468 1469 1464 1461 1459 1460 1458 1456 1451 1450 1448 1445 1439 1437 1436 1435 1436 1436 1437 1439 1439 1438 1438 1438 1438 1439 1439
1487 1469 1467 1463 1461 1461 1460 1458 1456 1456 1453 1452 1450 1449 1445 1445 1443 1438 1435 1434 1434 1434 1435 1437 1436 1435 1433 1432 1433 1433 1432 1433
1473 1464 1460 1457 1455 1452 1449 1447 1446 1445 1445 1442 1443 1443 1442 1440 1440 1437 1433 1434 1435 1435 1435 1433 1431 1431 1432 1431 1429 1428 1429 1428
1466 1458 1457 1449 1444 1441 1438 1433 1431 1431 1430 1433 1435 1434 1436 1435 1434 1432 1432 1431 1434 1435 1436 1435 1433 1431 1430 1427 1424 1424 1424 1422
1458 1453 1448 1440 1433 1426 1421 1416 1410 1410 1415 1420 1424 1426 1428 1429 1429 1428 1430 1431 1432 1432 1432 1431 1428 1425 1423 1420 1419 1419 1419 1417